Weather History for KBAB - June, 2013

Change the Weather History Date:

Sunday, June 23, 2013

  Actual Average Record
Temperature  
Mean Temperature 72 °F -  
Max Temperature 81 °F 88 °F 104 °F (2006)
Min Temperature 64 °F 61 °F 52 °F (2012)
Cooling Degree Days 6    
Growing Degree Days 22 (Base 50)    
Moisture  
Dew Point 55 °F    
Average Humidity 58    
Maximum Humidity 82    
Minimum Humidity 39    
Precipitation  
Precipitation 0.00 in - - ()
Sea Level Pressure  
Sea Level Pressure 29.92 in    
Wind  
Wind Speed 13 mph (SSE)    
Max Wind Speed 21 mph    
Max Gust Speed 28 mph    
Visibility 10 miles    
Events Rain    
Averages and records for this station are not official NWS values.
T = Trace of Precipitation, MM = Missing Value Source: NWS Daily Summary

Daily Weather History Graph

Daily Weather History Graph

Search for Another Location

Airport or City:

Trip Planner

Search our weather history database for the weather conditions in past years. The results will help you decide how hot, cold, wet, or windy it might be!

Date:

Astronomy

Jun. 23, 2013 Rise Set
Actual Time 5:40 AM PDT 8:35 PM PDT
Civil Twilight 5:08 AM PDT 9:07 PM PDT
Nautical Twilight 4:27 AM PDT 9:48 PM PDT
Astronomical Twilight 3:40 AM PDT 10:35 PM PDT
Moon 8:53 PM PDT (6/23) 6:03 AM PDT (6/23)
Length of Visible Light 15h 59m
Length of Day
14h 55m
Full, 100% of the Moon is Illuminated
Jun 23
Full
Jun 29
Last Quarter
Jul 8
New
Jul 15
First Quarter
Jul 22
Full

Hourly Weather History & Observations

Time (PDT) Temp. Dew Point Humidity Pressure Visibility Wind Dir Wind Speed Gust Speed Precip Events Conditions
12:58 AM 66.7 °F 44.4 °F 44% 29.97 in 10.0 mi SE 5.8 mph - N/A   Clear
1:58 AM 64.0 °F 46.4 °F 53% 29.97 in 10.0 mi SSE 6.9 mph - N/A   Clear
2:58 AM 67.3 °F 48.7 °F 51% 29.96 in 10.0 mi SE 10.4 mph - N/A   Clear
3:58 AM 66.0 °F 48.2 °F 53% 29.96 in 10.0 mi SSE 15.0 mph - N/A   Clear
4:58 AM 64.4 °F 49.1 °F 58% 29.96 in 10.0 mi SSE 16.1 mph - N/A   Clear
5:58 AM 64.0 °F 50.2 °F 61% 29.96 in 10.0 mi SE 18.4 mph - N/A   Clear
6:58 AM 65.3 °F 51.4 °F 61% 29.97 in 10.0 mi SE 16.1 mph - N/A   Clear
7:58 AM 65.3 °F 52.7 °F 64% 29.99 in 10.0 mi SE 20.7 mph 27.6 mph N/A   Partly Cloudy
8:58 AM 67.5 °F 52.5 °F 59% 30.00 in 10.0 mi SE 19.6 mph - N/A   Partly Cloudy
9:58 AM 70.9 °F 53.6 °F 54% 30.02 in 10.0 mi SE 17.3 mph - N/A   Mostly Cloudy
10:58 AM 70.0 °F 54.5 °F 58% 30.02 in 10.0 mi SE 19.6 mph 23.0 mph N/A   Partly Cloudy
11:58 AM 72.5 °F 54.5 °F 53% 30.01 in 10.0 mi ESE 18.4 mph - N/A   Mostly Cloudy
12:14 PM 73.4 °F 55.4 °F 53% 29.81 in 10.0 mi South 20.7 mph - N/A   Mostly Cloudy
12:58 PM 72.7 °F 56.1 °F 56% 30.03 in 10.0 mi SSE 16.1 mph - N/A   Mostly Cloudy
1:21 PM 75.2 °F 55.4 °F 50% 29.79 in 10.0 mi ESE 16.1 mph 24.2 mph N/A   Mostly Cloudy
1:58 PM 76.6 °F 53.4 °F 44% 30.01 in 10.0 mi SSE 17.3 mph - N/A   Mostly Cloudy
2:58 PM 79.3 °F 52.5 °F 39% 29.99 in 10.0 mi South 15.0 mph 20.7 mph N/A   Mostly Cloudy
3:58 PM 78.8 °F 55.4 °F 44% 29.98 in 10.0 mi South 19.6 mph - N/A   Overcast
4:47 PM 77.0 °F 57.2 °F 50% 29.76 in 10.0 mi South 16.1 mph - N/A   Light Drizzle
4:58 PM 77.0 °F 56.8 °F 50% 29.98 in 10.0 mi South 12.7 mph - 0.00 in   Light Drizzle
4:59 PM 77.0 °F 57.2 °F 50% 29.76 in 10.0 mi South 12.7 mph - N/A   Overcast
5:13 PM 77.0 °F 59.0 °F 54% 29.77 in 9.0 mi South 11.5 mph - N/A   Light Drizzle
5:14 PM 77.0 °F 59.0 °F 54% 29.77 in 9.0 mi South 10.4 mph - N/A   Overcast
5:16 PM 75.2 °F 59.0 °F 57% 29.77 in 9.0 mi South 10.4 mph - N/A   Light Drizzle
5:26 PM 73.4 °F 60.8 °F 65% 29.77 in 10.0 mi South 12.7 mph - N/A   Overcast
5:58 PM 75.6 °F 59.9 °F 58% 29.98 in 10.0 mi South 10.4 mph - 0.00 in   Overcast
6:09 PM 75.2 °F 60.8 °F 61% 29.76 in 10.0 mi South 10.4 mph - N/A Rain Light Rain
6:36 PM 71.6 °F 62.6 °F 73% 29.76 in 10.0 mi SSE 15.0 mph - N/A   Overcast
6:58 PM 72.3 °F 61.5 °F 69% 29.98 in 10.0 mi South 15.0 mph - 0.00 in   Overcast
7:58 PM 70.7 °F 60.3 °F 69% 29.98 in 10.0 mi SSE 15.0 mph - N/A   Overcast
8:58 PM 69.4 °F 59.0 °F 69% 29.98 in 10.0 mi SSE 12.7 mph - N/A   Overcast
9:58 PM 67.5 °F 59.0 °F 74% 29.99 in 10.0 mi SE 15.0 mph - N/A   Partly Cloudy
10:58 PM 65.7 °F 58.8 °F 79% 30.00 in 10.0 mi SSE 11.5 mph - N/A   Partly Cloudy
11:58 PM 64.0 °F 58.3 °F 82% 29.99 in 10.0 mi SSE 10.4 mph - N/A   Scattered Clouds